BVG1894 GCLP-LKPR

Flight info

Callsign BVG1894
Flight time N/A
Altitude 37000
Route KORA9A KORAL UG5 SONSO DCT ADUBI DCT VJF L27 MAR DCT ALCOL N871 TOPTU DCT TOU DCT GAI DCT MEN DCT NINUN DCT LATAM DCT ETREK DCT LTP DCT SOPLO DCT OMASI DCT KINNI DCT SOSAL DCT KORED DCT INTEG DCT KONIN DCT MEBEK DCT NENUM Z39 DOLUP DCT APRAQ APRA2T
Aircraft B739/M-SDE2E3FGHIRWXY/LB1

Departure

Time 2026-05-06 23:28
Airport Gran Canaria Airport (GCLP)

Arrival

Time N/A
Airport Václav Havel Airport Prague (LKPR)
Time Latitude Longitude Altitude Speed Heading
2026-05-06 23:08 27.93922 -15.38825 86 ft 0 kts 290°
2026-05-06 23:18 27.93923 -15.38827 86 ft 1 kts 284°
2026-05-06 23:18 27.93908 -15.38842 86 ft 5 kts 173°
2026-05-06 23:19 27.93889 -15.38805 86 ft 8 kts 111°
2026-05-06 23:19 27.93862 -15.38729 86 ft 13 kts 114°
2026-05-06 23:19 27.93777 -15.38688 86 ft 15 kts 182°
2026-05-06 23:19 27.93665 -15.38709 86 ft 18 kts 181°
2026-05-06 23:20 27.93539 -15.38753 86 ft 19 kts 213°
2026-05-06 23:20 27.93410 -15.38812 86 ft 22 kts 204°
2026-05-06 23:20 27.93265 -15.38881 86 ft 24 kts 201°
2026-05-06 23:20 27.93101 -15.38953 86 ft 25 kts 201°
2026-05-06 23:21 27.92935 -15.39029 86 ft 26 kts 214°
2026-05-06 23:21 27.92828 -15.39073 86 ft 26 kts 214°
2026-05-06 23:21 27.92663 -15.39157 86 ft 25 kts 206°
2026-05-06 23:21 27.92502 -15.39231 86 ft 25 kts 188°
2026-05-06 23:22 27.92341 -15.39282 86 ft 23 kts 210°
2026-05-06 23:22 27.92192 -15.39348 86 ft 20 kts 201°
2026-05-06 23:22 27.92118 -15.39381 86 ft 10 kts 187°
2026-05-06 23:22 27.92052 -15.39361 86 ft 10 kts 159°
2026-05-06 23:23 27.91988 -15.39333 86 ft 9 kts 159°
2026-05-06 23:23 27.91937 -15.39292 86 ft 9 kts 120°
2026-05-06 23:23 27.91926 -15.39227 86 ft 8 kts 59°
2026-05-06 23:24 27.91974 -15.39197 86 ft 0 kts 20°
2026-05-06 23:27 27.92045 -15.39167 86 ft 37 kts 20°
2026-05-06 23:27 27.92487 -15.38979 86 ft 97 kts 22°
2026-05-06 23:28 27.93271 -15.38654 86 ft 145 kts 15°
2026-05-06 23:28 27.94292 -15.38196 326 ft 159 kts 21°
2026-05-06 23:28 27.95298 -15.37758 999 ft 159 kts 21°
2026-05-06 23:28 27.96307 -15.37320 1343 ft 178 kts 21°
2026-05-06 23:29 27.97527 -15.36789 1920 ft 186 kts 21°
2026-05-06 23:29 27.98583 -15.36329 2323 ft 198 kts 21°
2026-05-06 23:29 27.99919 -15.35748 2713 ft 214 kts 21°
2026-05-06 23:29 28.01319 -15.35138 3421 ft 213 kts 21°
2026-05-06 23:30 28.02628 -15.34567 3817 ft 216 kts 20°
2026-05-06 23:30 28.03983 -15.33975 4012 ft 216 kts 20°
2026-05-06 23:30 28.05409 -15.33354 4008 ft 216 kts 20°
2026-05-06 23:30 28.06798 -15.32753 3983 ft 219 kts 20°
2026-05-06 23:31 28.08095 -15.32190 3983 ft 228 kts 20°
2026-05-06 23:31 28.09422 -15.31614 4013 ft 234 kts 20°
2026-05-06 23:31 28.10787 -15.31021 4018 ft 240 kts 20°
2026-05-06 23:31 28.12270 -15.30376 4012 ft 242 kts 21°
2026-05-06 23:32 28.13742 -15.29523 3988 ft 240 kts 37°
2026-05-06 23:32 28.14875 -15.28193 4038 ft 238 kts 53°
2026-05-06 23:32 28.15827 -15.26708 4331 ft 236 kts 54°
2026-05-06 23:32 28.16760 -15.25180 4711 ft 237 kts 56°
2026-05-06 23:33 28.17650 -15.23675 5074 ft 241 kts 56°
2026-05-06 23:33 28.18587 -15.22083 5520 ft 243 kts 54°
2026-05-06 23:33 28.19522 -15.20488 5957 ft 248 kts 53°
2026-05-06 23:33 28.20490 -15.18835 6408 ft 257 kts 53°
2026-05-06 23:34 28.21452 -15.17191 6841 ft 265 kts 54°
2026-05-06 23:34 28.22496 -15.15402 7303 ft 265 kts 54°
2026-05-06 23:34 28.23487 -15.13702 7784 ft 265 kts 54°
2026-05-06 23:34 28.24491 -15.11978 8371 ft 269 kts 54°
2026-05-06 23:35 28.25521 -15.10208 9011 ft 271 kts 54°
2026-05-06 23:35 28.25884 -15.09585 9224 ft 272 kts 54°
2026-05-06 23:35 28.27605 -15.06622 10225 ft 277 kts 54°
2026-05-06 23:35 28.28686 -15.04760 10755 ft 283 kts 54°
2026-05-06 23:36 28.29709 -15.02998 11118 ft 295 kts 54°
2026-05-06 23:36 28.30961 -15.00838 11419 ft 312 kts 54°
2026-05-06 23:36 28.32171 -14.98750 11707 ft 328 kts 54°
2026-05-06 23:36 28.33453 -14.96545 11994 ft 343 kts 54°
2026-05-06 23:37 28.34792 -14.94268 12250 ft 358 kts 54°
2026-05-06 23:37 28.36157 -14.91938 12519 ft 372 kts 54°
2026-05-06 23:37 28.37600 -14.89468 12956 ft 380 kts 54°
2026-05-06 23:37 28.39032 -14.87008 13517 ft 383 kts 54°
2026-05-06 23:38 28.40536 -14.84420 14079 ft 388 kts 54°
2026-05-06 23:38 28.42014 -14.81873 14623 ft 391 kts 54°
2026-05-06 23:38 28.43481 -14.79343 15169 ft 394 kts 54°
2026-05-06 23:38 28.44935 -14.76831 15686 ft 398 kts 54°
2026-05-06 23:39 28.46397 -14.74304 16194 ft 401 kts 54°
2026-05-06 23:39 28.47829 -14.71828 16680 ft 404 kts 54°
2026-05-06 23:39 28.49342 -14.69210 17177 ft 407 kts 54°
2026-05-06 23:39 28.50866 -14.66569 17667 ft 410 kts 54°
2026-05-06 23:40 28.52482 -14.63767 18168 ft 413 kts 54°
2026-05-06 23:40 28.54021 -14.61098 18638 ft 416 kts 54°
2026-05-06 23:40 28.55537 -14.58468 19085 ft 418 kts 54°
2026-05-06 23:40 28.57044 -14.55850 19517 ft 421 kts 55°
2026-05-06 23:41 28.58630 -14.53093 19964 ft 424 kts 55°
2026-05-06 23:41 28.60214 -14.50338 20400 ft 427 kts 55°
2026-05-06 23:41 28.61562 -14.47992 20758 ft 429 kts 55°
2026-05-06 23:41 28.63249 -14.45055 21206 ft 431 kts 55°
2026-05-06 23:42 28.64888 -14.42199 21611 ft 434 kts 55°
2026-05-06 23:42 28.66534 -14.39329 22016 ft 437 kts 55°
2026-05-06 23:42 28.68140 -14.36526 22398 ft 439 kts 55°
2026-05-06 23:42 28.69770 -14.33680 22775 ft 441 kts 55°
2026-05-06 23:43 28.71433 -14.30775 23149 ft 444 kts 55°
2026-05-06 23:43 28.73014 -14.28011 23498 ft 446 kts 55°
2026-05-06 23:43 28.74781 -14.24920 23873 ft 448 kts 55°
2026-05-06 23:43 28.76513 -14.21888 24231 ft 451 kts 55°
2026-05-06 23:44 28.78144 -14.19030 24560 ft 453 kts 55°
2026-05-06 23:44 28.79789 -14.16145 24878 ft 455 kts 55°
2026-05-06 23:44 28.81494 -14.13154 25202 ft 457 kts 55°
2026-05-06 23:44 28.83148 -14.10249 25508 ft 459 kts 55°
2026-05-06 23:45 28.84977 -14.07035 25834 ft 461 kts 55°
2026-05-06 23:45 28.86697 -14.04011 26131 ft 463 kts 55°
2026-05-06 23:45 28.88454 -14.00919 26428 ft 465 kts 55°
2026-05-06 23:45 28.90213 -13.97821 26717 ft 467 kts 55°
2026-05-06 23:46 28.91984 -13.94701 26997 ft 469 kts 55°
2026-05-06 23:46 28.93695 -13.91682 27262 ft 471 kts 55°
2026-05-06 23:46 28.95473 -13.88543 27528 ft 473 kts 55°
2026-05-06 23:46 28.97049 -13.85760 27720 ft 476 kts 55°
2026-05-06 23:47 28.98931 -13.82434 27983 ft 478 kts 55°
2026-05-06 23:47 29.00742 -13.79264 28231 ft 479 kts 55°
2026-05-06 23:47 29.02433 -13.76284 28455 ft 481 kts 55°
2026-05-06 23:47 29.04186 -13.73177 28684 ft 483 kts 56°
2026-05-06 23:48 29.06027 -13.69906 28979 ft 483 kts 56°
2026-05-06 23:48 29.07745 -13.66850 29365 ft 480 kts 56°
2026-05-06 23:48 29.09542 -13.63650 29658 ft 480 kts 56°
2026-05-06 23:48 29.11318 -13.60486 29897 ft 481 kts 56°
2026-05-06 23:49 29.13068 -13.57366 30257 ft 479 kts 56°
2026-05-06 23:49 29.14853 -13.54188 30560 ft 478 kts 56°
2026-05-06 23:49 29.16652 -13.50978 30785 ft 479 kts 56°
2026-05-06 23:49 29.17760 -13.49028 30984 ft 478 kts 54°
2026-05-06 23:50 29.20144 -13.45125 31396 ft 475 kts 52°
2026-05-06 23:50 29.23946 -13.38993 31880 ft 476 kts 53°
2026-05-06 23:50 29.25874 -13.35848 32202 ft 474 kts 53°
2026-05-06 23:51 29.27091 -13.33856 32343 ft 475 kts 53°
2026-05-06 23:51 29.28894 -13.30900 32562 ft 475 kts 53°
2026-05-06 23:51 29.30870 -13.27653 32877 ft 473 kts 53°
2026-05-06 23:51 29.33280 -13.23686 33157 ft 473 kts 53°
2026-05-06 23:52 29.34529 -13.21629 33330 ft 473 kts 53°
2026-05-06 23:52 29.36972 -13.17615 33658 ft 472 kts 53°
2026-05-06 23:52 29.38173 -13.15662 33798 ft 472 kts 53°
2026-05-06 23:52 29.40595 -13.11699 34117 ft 471 kts 53°
2026-05-06 23:53 29.42464 -13.08629 34324 ft 471 kts 53°
2026-05-06 23:53 29.44337 -13.05544 34564 ft 470 kts 53°
2026-05-06 23:53 29.45611 -13.03444 34726 ft 469 kts 53°
2026-05-06 23:53 29.47960 -12.99565 34966 ft 470 kts 53°
2026-05-06 23:54 29.49229 -12.97467 35136 ft 469 kts 53°
2026-05-06 23:54 29.51062 -12.94436 35344 ft 468 kts 53°
2026-05-06 23:54 29.53449 -12.90484 35502 ft 471 kts 53°
2026-05-06 23:54 29.54791 -12.88263 35581 ft 472 kts 53°
2026-05-06 23:55 29.56682 -12.85163 35700 ft 473 kts 53°
2026-05-06 23:55 29.58398 -12.82325 35798 ft 475 kts 53°
2026-05-06 23:55 29.60321 -12.79129 35912 ft 477 kts 53°
2026-05-06 23:55 29.62081 -12.76199 36005 ft 478 kts 53°
2026-05-06 23:56 29.63360 -12.74066 36076 ft 479 kts 53°